QPF
0.00 0.00 0.00 0.00 0.00 0.00 0.00 0.00 0.00 0.02 0.00 0.00 0.00 0.00 0.00 0.00 0.01 0.07 0.07 0.03 0.04 0.06 0.02 0.00 0.00 0.00 0.00 0.00 0.00 0.00 0.00 0.00
0.00 0.00 0.00 0.00 0.00 0.00 0.00 0.00 0.00 0.00 0.00 0.00 0.00 0.00 0.00 0.00 0.00 0.02 0.03 0.03 0.03 0.02 0.00 0.00 0.00 0.00 0.00 0.00 0.00 0.00 0.00 0.00
0.00 0.00 0.00 0.00 0.00 0.00 0.00 0.00 0.00 0.00 0.00 0.00 0.00 0.00 0.00 0.00 0.00 0.00 0.01 0.01 0.02 0.01 0.00 0.00 0.00 0.00 0.00 0.00 0.00 0.00 0.00 0.00
0.00 0.00 0.00 0.00 0.00 0.00 0.00 0.01 0.01 0.00 0.00 0.00 0.00 0.00 0.00 0.00 0.00 0.00 0.02 0.01 0.01 0.00 0.00 0.00 0.00 0.00 0.00 0.00 0.00 0.00 0.00 0.00
0.00 0.00 0.00 0.00 0.00 0.00 0.00 0.01 0.01 0.02 0.03 0.01 0.00 0.00 0.00 0.00 0.00 0.01 0.04 0.02 0.00 0.00 0.00 0.00 0.00 0.00 0.00 0.00 0.00 0.00 0.00 0.00
0.00 0.00 0.00 0.00 0.00 0.00 0.00 0.00 0.01 0.02 0.05 0.07 0.02 0.01 0.00 0.00 0.00 0.03 0.02 0.00 0.00 0.00 0.00 0.00 0.00 0.00 0.00 0.00 0.00 0.00 0.00 0.00
0.00 0.00 0.00 0.00 0.00 0.00 0.00 0.00 0.00 0.01 0.05 0.08 0.08 0.06 0.03 0.02 0.02 0.07 0.04 0.00 0.00 0.00 0.00 0.00 0.00 0.00 0.00 0.00 0.00 0.00 0.00 0.00
0.00 0.00 0.00 0.00 0.00 0.00 0.00 0.00 0.00 0.00 0.01 0.03 0.07 0.06 0.05 0.03 0.07 0.04 0.04 0.02 0.00 0.00 0.00 0.00 0.00 0.00 0.00 0.00 0.00 0.00 0.00 0.00
0.00 0.00 0.00 0.00 0.00 0.00 0.00 0.00 0.00 0.00 0.00 0.01 0.01 0.02 0.06 0.07 0.07 0.04 0.02 0.02 0.00 0.00 0.00 0.00 0.00 0.00 0.00 0.00 0.00 0.00 0.00 0.00
0.00 0.00 0.00 0.00 0.00 0.00 0.00 0.00 0.00 0.00 0.00 0.01 0.01 0.02 0.04 0.11 0.11 0.06 0.01 0.01 0.00 0.00 0.00 0.00 0.00 0.00 0.00 0.00 0.00 0.00 0.00 0.00
0.00 0.00 0.00 0.00 0.00 0.00 0.00 0.00 0.00 0.00 0.00 0.00 0.01 0.04 0.08 0.11 0.20 0.10 0.04 0.01 0.00 0.00 0.00 0.00 0.00 0.00 0.00 0.00 0.00 0.00 0.00 0.00
0.00 0.00 0.00 0.00 0.00 0.00 0.00 0.00 0.00 0.00 0.00 0.00 0.00 0.04 0.16 0.26 0.25 0.19 0.08 0.05 0.00 0.00 0.00 0.00 0.00 0.00 0.00 0.00 0.00 0.00 0.00 0.00
0.00 0.00 0.00 0.00 0.00 0.00 0.00 0.00 0.00 0.00 0.00 0.00 0.00 0.02 0.15 0.54 0.31 0.12 0.08 0.06 0.00 0.00 0.00 0.00 0.00 0.00 0.00 0.00 0.00 0.00 0.00 0.00
0.00 0.00 0.00 0.00 0.00 0.00 0.00 0.00 0.00 0.00 0.00 0.00 0.00 0.02 0.06 0.47 0.39 0.14 0.05 0.03 0.01 0.00 0.00 0.00 0.00 0.00 0.00 0.00 0.00 0.00 0.00 0.00
0.00 0.00 0.00 0.00 0.00 0.00 0.00 0.00 0.00 0.00 0.00 0.00 0.00 0.08 0.12 0.20 0.32 0.20 0.05 0.01 0.00 0.00 0.00 0.00 0.00 0.00 0.00 0.00 0.00 0.00 0.00 0.00
0.00 0.00 0.00 0.00 0.00 0.00 0.00 0.00 0.01 0.00 0.00 0.00 0.01 0.04 0.12 0.14 0.21 0.28 0.08 0.01 0.00 0.00 0.00 0.00 0.00 0.00 0.00 0.00 0.00 0.00 0.00 0.00
0.00 0.00 0.00 0.00 0.00 0.00 0.00 0.00 0.00 0.00 0.00 0.00 0.01 0.01 0.05 0.16 0.16 0.22 0.11 0.02 0.01 0.00 0.00 0.00 0.00 0.00 0.00 0.00 0.00 0.00 0.00 0.00
0.00 0.00 0.00 0.00 0.00 0.00 0.00 0.00 0.00 0.00 0.00 0.01 0.01 0.01 0.01 0.07 0.19 0.15 0.09 0.04 0.01 0.00 0.00 0.00 0.00 0.00 0.00 0.00 0.00 0.00 0.00 0.00
0.00 0.00 0.00 0.00 0.00 0.00 0.00 0.00 0.00 0.00 0.00 0.00 0.02 0.06 0.03 0.00 0.05 0.11 0.07 0.03 0.01 0.01 0.00 0.00 0.00 0.00 0.00 0.00 0.00 0.00 0.00 0.00
0.00 0.00 0.01 0.00 0.00 0.03 0.01 0.00 0.00 0.00 0.00 0.00 0.00 0.04 0.06 0.03 0.00 0.01 0.04 0.04 0.01 0.01 0.00 0.00 0.00 0.00 0.00 0.00 0.00 0.00 0.00 0.00
MSLP
1009.48 1009.89 1009.94 1010.17 1010.35 1011.06 1011.77 1012.24 1012.19 1012.34 1012.56 1012.85 1013.31 1013.49 1014.31 1013.86 1015.08 1015.48 1016.42 1016.75 1016.67 1017.76 1018.12 1018.52 1019.17 1019.41 1019.65 1020.00 1020.36 1020.37 1020.30 1020.65
1009.22 1009.60 1010.02 1010.12 1010.27 1010.60 1011.36 1012.18 1012.51 1012.69 1012.70 1012.97 1013.41 1013.92 1014.41 1014.29 1014.91 1015.35 1015.55 1015.28 1017.04 1017.83 1018.40 1018.72 1019.44 1019.64 1019.85 1020.27 1020.63 1020.75 1020.56 1020.87
1009.22 1009.51 1009.81 1010.08 1010.22 1010.46 1010.92 1011.65 1012.30 1012.84 1013.04 1013.12 1013.52 1013.86 1014.22 1014.69 1014.92 1015.42 1015.45 1015.19 1016.60 1017.74 1018.45 1018.96 1019.63 1020.03 1020.16 1020.44 1020.73 1020.63 1020.87 1021.09
1008.81 1009.34 1009.73 1010.00 1010.22 1010.22 1010.64 1011.07 1011.74 1012.38 1013.02 1013.24 1013.40 1013.75 1014.18 1014.44 1014.96 1015.52 1015.39 1015.58 1016.38 1017.44 1018.46 1019.21 1019.68 1019.97 1020.33 1020.73 1020.61 1020.97 1021.12 1021.36
1008.36 1008.95 1009.37 1009.78 1010.01 1010.12 1010.36 1010.71 1011.25 1011.99 1012.62 1013.07 1013.40 1013.95 1014.41 1014.71 1015.15 1015.64 1015.59 1015.77 1016.23 1017.03 1018.31 1019.05 1019.28 1019.68 1020.08 1020.46 1020.82 1021.17 1021.49 1021.65
1008.18 1008.75 1009.01 1009.28 1009.51 1010.02 1010.09 1010.59 1010.94 1011.56 1012.36 1012.92 1013.42 1013.76 1014.06 1014.47 1014.90 1015.25 1015.43 1015.67 1016.46 1016.96 1017.79 1018.82 1019.44 1019.73 1020.22 1020.60 1020.94 1021.31 1021.74 1021.99
1007.44 1008.09 1008.54 1008.99 1009.38 1009.76 1010.16 1010.57 1010.75 1011.02 1011.81 1012.68 1013.13 1013.46 1013.91 1014.02 1014.68 1014.93 1015.14 1015.58 1016.22 1016.89 1017.72 1018.73 1019.43 1019.88 1020.33 1020.68 1021.20 1021.49 1021.89 1022.11
1006.59 1007.11 1007.67 1008.27 1008.77 1009.33 1009.87 1010.25 1010.74 1010.98 1011.22 1011.85 1012.42 1012.92 1013.24 1013.75 1014.24 1014.77 1015.05 1015.50 1016.12 1016.85 1017.27 1018.61 1019.18 1019.74 1020.28 1020.81 1021.24 1021.50 1022.00 1022.34
1005.33 1005.90 1006.68 1007.31 1007.94 1008.68 1009.35 1009.86 1010.18 1010.63 1010.70 1011.30 1011.74 1012.24 1012.72 1012.99 1013.66 1014.22 1014.89 1015.28 1016.29 1017.00 1017.47 1018.43 1019.09 1019.62 1020.18 1020.92 1021.31 1021.82 1022.22 1022.37
1004.53 1005.00 1005.65 1006.33 1007.06 1007.93 1008.75 1009.41 1009.64 1010.24 1010.38 1010.83 1011.17 1011.54 1012.16 1012.81 1013.40 1013.90 1014.36 1015.12 1015.87 1016.80 1017.11 1018.22 1018.92 1019.57 1020.16 1020.68 1021.21 1021.63 1022.32 1022.39
1003.77 1004.23 1004.75 1005.41 1006.45 1007.35 1008.22 1008.82 1009.30 1009.85 1010.11 1010.36 1010.69 1011.09 1011.52 1012.11 1012.74 1013.17 1013.96 1014.83 1015.52 1016.26 1016.90 1017.57 1018.59 1019.36 1020.06 1020.61 1021.26 1021.49 1022.39 1022.41
1003.04 1003.61 1004.12 1004.87 1005.95 1006.92 1007.84 1008.53 1009.01 1009.39 1009.80 1009.86 1010.33 1010.64 1011.08 1011.45 1012.00 1012.22 1013.34 1014.52 1015.23 1015.95 1016.58 1017.47 1018.16 1019.05 1019.94 1020.87 1021.47 1021.67 1022.30 1022.47
1002.72 1003.14 1003.69 1004.40 1005.18 1006.04 1007.09 1007.81 1008.63 1008.96 1009.25 1009.43 1009.81 1010.12 1010.46 1010.62 1010.30 1011.70 1012.68 1013.78 1014.49 1015.31 1016.31 1017.09 1018.24 1018.92 1019.93 1021.04 1021.60 1021.98 1022.45 1022.42
1002.90 1003.01 1003.51 1003.84 1004.34 1005.24 1006.04 1007.17 1007.89 1008.30 1008.54 1008.84 1009.04 1009.36 1009.70 1009.76 1010.01 1010.41 1011.95 1013.29 1014.26 1014.93 1015.44 1016.52 1017.59 1018.58 1018.70 1019.78 1020.84 1022.00 1022.23 1022.40
1002.59 1002.80 1003.42 1003.60 1004.19 1005.00 1005.84 1006.82 1007.44 1007.80 1007.96 1008.33 1008.53 1008.66 1008.80 1009.17 1009.47 1010.37 1011.47 1012.52 1013.71 1014.25 1015.01 1015.62 1016.57 1018.11 1018.35 1018.08 1019.32 1019.87 1021.18 1021.91
1002.20 1002.58 1003.05 1003.33 1003.75 1004.36 1005.22 1005.72 1006.60 1006.93 1007.32 1007.94 1008.24 1008.51 1008.54 1008.75 1009.54 1009.95 1011.14 1012.06 1013.11 1013.66 1014.65 1015.17 1015.90 1016.80 1017.97 1018.23 1018.06 1018.92 1019.63 1021.03
1002.08 1002.48 1002.80 1003.18 1003.29 1003.66 1004.64 1005.46 1006.01 1006.48 1007.07 1007.72 1008.09 1008.52 1008.80 1009.12 1009.50 1010.26 1010.94 1011.81 1012.49 1013.30 1014.39 1014.98 1015.37 1015.94 1016.78 1017.55 1018.09 1018.70 1019.01 1019.35
1002.25 1002.38 1002.79 1003.42 1003.65 1003.58 1003.92 1004.90 1005.48 1006.16 1006.77 1007.23 1007.63 1008.19 1008.73 1009.23 1009.70 1010.14 1010.99 1011.63 1012.38 1013.25 1013.93 1014.57 1015.06 1015.62 1016.18 1016.83 1017.04 1017.48 1018.13 1018.54
1002.38 1002.51 1002.73 1003.15 1003.43 1003.90 1003.94 1004.51 1004.91 1005.57 1006.26 1006.82 1007.17 1007.68 1008.18 1008.82 1009.42 1010.03 1010.68 1011.27 1012.38 1013.07 1013.72 1014.25 1014.76 1015.13 1015.78 1016.37 1016.75 1017.07 1017.64 1018.24
1002.47 1002.53 1002.65 1003.00 1003.18 1003.80 1004.40 1004.40 1004.58 1005.23 1005.83 1006.41 1006.83 1007.18 1007.61 1008.19 1008.91 1009.65 1010.45 1011.13 1011.86 1012.64 1013.38 1013.91 1014.41 1014.93 1015.60 1016.16 1016.61 1017.18 1017.61 1017.96
Thickness
5715 5712 5711 5709 5706 5697 5689 5683 5682 5680 5678 5674 5668 5666 5658 5662 5650 5645 5643 5642 5644 5636 5636 5637 5635 5639 5641 5643 5642 5644 5646 5646
5716 5710 5706 5705 5702 5698 5688 5679 5674 5671 5672 5668 5662 5656 5653 5653 5647 5643 5645 5650 5639 5631 5629 5632 5631 5634 5637 5637 5637 5638 5641 5641
5711 5706 5701 5699 5697 5695 5688 5679 5671 5665 5663 5662 5657 5651 5647 5644 5641 5641 5642 5647 5638 5631 5626 5625 5625 5627 5630 5632 5632 5634 5635 5636
5709 5702 5697 5694 5691 5691 5685 5680 5672 5663 5656 5654 5651 5647 5643 5642 5638 5636 5640 5640 5636 5630 5623 5621 5621 5621 5623 5626 5627 5627 5629 5630
5705 5699 5695 5691 5687 5685 5681 5678 5672 5662 5654 5649 5646 5641 5638 5636 5632 5631 5634 5635 5634 5631 5622 5618 5621 5619 5620 5622 5622 5621 5623 5623
5700 5695 5692 5689 5685 5680 5677 5672 5668 5660 5649 5643 5639 5637 5635 5631 5629 5628 5630 5631 5629 5628 5622 5618 5617 5616 5615 5616 5618 5617 5617 5617
5699 5693 5689 5685 5681 5676 5671 5667 5663 5658 5647 5638 5634 5633 5632 5633 5627 5627 5628 5627 5627 5624 5620 5615 5612 5611 5610 5612 5611 5612 5611 5610
5698 5694 5690 5686 5680 5674 5669 5664 5658 5654 5647 5641 5634 5631 5631 5629 5627 5624 5625 5625 5622 5621 5620 5612 5609 5607 5606 5607 5606 5607 5606 5605
5702 5696 5691 5687 5681 5674 5667 5661 5657 5651 5645 5640 5635 5632 5631 5628 5625 5625 5621 5622 5618 5616 5613 5608 5604 5603 5603 5601 5603 5602 5600 5603
5700 5696 5693 5688 5682 5674 5666 5660 5656 5649 5642 5637 5634 5633 5628 5623 5620 5621 5621 5619 5617 5614 5613 5606 5604 5602 5600 5600 5599 5599 5598 5601
5698 5695 5693 5688 5680 5672 5664 5659 5653 5646 5640 5635 5631 5628 5626 5621 5619 5620 5619 5616 5615 5615 5612 5609 5602 5601 5599 5598 5595 5597 5594 5597
5696 5692 5691 5685 5677 5669 5662 5656 5650 5644 5638 5633 5628 5625 5621 5617 5617 5620 5617 5613 5613 5612 5611 5606 5602 5600 5596 5592 5592 5594 5591 5593
5690 5689 5686 5682 5676 5669 5660 5655 5647 5641 5636 5630 5627 5622 5619 5614 5624 5618 5617 5613 5616 5615 5608 5605 5597 5597 5591 5586 5587 5588 5588 5592
5681 5682 5679 5679 5677 5670 5664 5654 5648 5641 5637 5632 5628 5622 5613 5611 5616 5622 5616 5612 5609 5610 5611 5606 5599 5596 5598 5593 5586 5584 5586 5589
5676 5677 5673 5675 5671 5666 5659 5651 5645 5640 5636 5630 5627 5622 5615 5611 5615 5614 5612 5612 5608 5610 5610 5610 5605 5597 5600 5605 5593 5597 5589 5587
5673 5673 5670 5671 5668 5665 5657 5654 5645 5640 5635 5628 5624 5620 5615 5610 5609 5613 5611 5610 5608 5610 5607 5609 5605 5602 5597 5601 5605 5601 5597 5587
5666 5666 5666 5665 5667 5665 5658 5651 5646 5640 5632 5624 5620 5616 5613 5607 5607 5606 5607 5608 5609 5609 5604 5605 5607 5606 5603 5600 5598 5596 5597 5597
5656 5659 5658 5655 5657 5660 5659 5651 5645 5637 5629 5623 5620 5615 5609 5604 5603 5604 5602 5604 5605 5603 5603 5603 5604 5604 5604 5602 5602 5600 5595 5594
5647 5650 5652 5650 5651 5649 5652 5649 5645 5638 5629 5623 5619 5616 5613 5609 5605 5602 5602 5604 5599 5599 5598 5601 5602 5602 5601 5599 5600 5599 5596 5593
5638 5643 5646 5646 5648 5643 5640 5644 5643 5637 5628 5622 5619 5616 5613 5611 5607 5604 5600 5602 5601 5598 5596 5598 5600 5599 5595 5594 5594 5592 5591 5589